Location: Newark
(30.4994°N, 96.8283°W)
Time: 07:27:24
(UTC+00:00)

Envisat - Pass Details

Date: 24 November 2019
Orbit: 764 x 766 km, 98.1° (Epoch: 15 December)

Event Time Altitude Azimuth Distance (km) Brightness Sun altitude
Rises 00:43:15 0° 172° (S) 3,216 6.3 -16.3°
Reaches altitude 10° 00:45:33 10° 174° (S) 2,293 5.6 -16.8°
Maximum altitude 00:50:36 71° 259° (WSW) 807 3.2 -17.8°
Drops below altitude 10° 00:55:40 10° 343° (NNW) 2,305 5.5 -18.9°
Sets 00:57:59 0° 345° (NNW) 3,234 6.3 -19.4°
